Theta_e
311 311 311 312 313 313 311 307 308 309 308 308 307 306 306 306 306 307 306 307 307 307 307 307 309 310 313 315 317 318 318 319 321 322 325 322 317 315 312 311 311 312 315 316 315 315 315 316 314 314 316 318 321 322 321 321 330 341 339 327 322 322 319 318 320 323 324 320 318 317 318 320 318 318 317 316 317 316 314 313 311 310 310 310 310 310 311 312
310 310 311 311 312 313 313 309 307 308 309 308 307 306 306 306 306 306 306 307 306 307 308 308 311 313 315 317 317 317 317 320 323 321 318 318 316 315 313 311 311 313 315 316 315 314 315 316 314 314 317 320 320 320 322 323 327 335 335 326 321 322 319 317 319 320 320 319 319 318 319 320 318 318 317 317 318 315 316 314 311 312 311 310 310 311 312 312
311 311 310 311 311 312 312 311 309 308 308 308 307 306 306 307 306 306 307 307 308 308 310 312 314 316 317 316 315 315 316 322 325 321 315 315 315 313 311 311 312 312 314 315 314 314 315 315 314 314 318 319 319 322 325 325 324 328 336 329 320 321 319 317 320 319 319 319 320 319 319 320 318 318 317 317 318 316 318 316 314 314 311 311 310 310 312 312
310 310 310 311 311 311 312 312 312 309 308 308 307 307 307 307 307 307 308 309 310 311 313 315 315 316 316 314 313 313 318 324 324 319 315 315 315 312 311 312 312 313 314 315 315 315 315 315 315 315 318 318 318 322 324 323 323 325 330 326 318 321 320 318 320 320 320 320 320 320 318 318 317 317 318 317 317 318 318 317 318 317 311 312 311 308 310 310
309 309 310 310 311 311 312 312 312 310 309 309 308 308 308 308 308 309 309 311 312 313 315 315 315 315 314 314 313 314 321 325 321 316 313 313 313 312 312 313 313 314 315 316 316 316 316 315 315 318 319 318 320 322 320 319 322 323 321 321 319 321 321 318 320 321 320 320 320 320 317 317 317 317 319 318 318 321 320 315 316 315 310 311 310 308 309 308
309 309 310 310 310 311 311 312 312 312 311 310 309 309 310 310 310 310 311 313 314 315 315 314 314 314 313 314 313 317 325 325 318 314 312 313 313 313 314 314 314 315 316 317 315 316 317 316 316 318 318 317 322 322 318 318 322 323 319 319 320 320 320 318 320 321 319 319 319 318 317 317 317 317 318 318 318 320 316 313 312 311 309 309 309 308 308 307
310 310 310 310 310 310 310 311 311 312 312 311 312 311 311 311 311 312 313 314 314 314 314 314 314 314 314 314 318 325 328 323 318 315 313 313 313 313 314 314 315 316 317 316 315 316 318 318 315 316 319 318 320 320 318 319 321 323 321 319 320 319 318 320 321 319 319 319 317 317 316 316 317 316 317 318 317 315 312 309 308 308 308 308 309 308 307 307
311 311 311 311 310 309 310 310 310 311 312 312 313 313 312 312 312 313 314 314 313 312 313 314 314 315 314 314 322 331 329 323 319 315 313 313 313 313 313 314 315 317 317 316 316 316 317 319 316 315 318 318 317 318 318 320 321 321 320 319 320 319 318 321 322 320 318 317 316 317 316 318 318 315 316 318 314 312 310 308 307 307 308 308 310 309 306 306
311 311 312 312 310 309 309 310 310 310 311 312 313 313 312 312 313 313 313 313 312 312 313 315 316 315 316 318 324 327 325 323 319 314 314 312 312 313 314 316 316 316 317 316 315 315 317 318 317 316 317 317 318 318 319 321 320 319 319 318 319 318 318 320 320 319 318 318 317 317 318 320 318 315 316 317 313 310 310 309 309 309 309 310 310 308 305 306
311 310 311 311 311 310 310 310 310 310 311 312 313 313 312 312 313 313 313 312 312 313 314 315 316 316 317 322 327 325 321 320 317 315 316 314 313 313 315 316 316 316 316 316 316 316 317 317 316 316 317 318 317 317 319 320 319 317 319 318 318 319 319 318 318 319 319 318 317 317 318 319 317 315 316 316 310 309 310 310 310 310 310 309 309 307 305 306
311 310 310 311 311 311 311 310 310 310 310 311 312 313 313 313 312 313 312 312 313 314 315 316 317 316 317 321 327 324 320 319 318 317 318 317 315 314 315 315 315 317 316 317 316 316 316 315 314 315 317 317 317 318 317 317 316 317 318 318 320 320 318 318 318 318 317 316 318 318 317 317 315 315 318 315 309 309 311 310 310 310 310 309 309 308 305 305
310 310 311 311 311 311 311 310 309 310 310 310 311 312 313 313 312 313 313 313 315 315 316 317 317 317 318 322 325 322 320 319 319 318 318 317 315 315 315 313 314 316 317 318 317 314 315 315 316 317 318 317 318 319 317 315 316 317 317 318 322 321 319 319 318 318 317 316 318 316 316 318 315 315 318 313 309 310 311 311 310 310 310 310 310 309 306 305
311 310 311 311 311 311 311 311 310 310 310 310 311 312 313 313 312 313 314 315 316 317 317 317 318 317 320 324 323 320 320 319 318 317 316 315 314 315 314 313 314 314 316 318 316 313 314 315 317 317 317 319 319 316 315 316 315 318 317 317 322 323 324 321 316 317 317 316 318 316 318 324 321 316 315 311 309 311 312 311 310 310 310 310 310 310 308 305
313 312 311 311 311 311 312 312 311 310 310 310 311 311 312 313 314 315 315 316 317 318 317 317 318 319 322 323 319 319 320 317 317 316 315 316 315 315 314 314 314 313 315 317 315 314 314 315 316 317 317 318 317 315 318 317 317 320 318 320 322 321 329 326 315 318 317 315 317 316 319 324 323 317 311 309 310 311 313 311 310 310 309 309 309 309 309 306
315 314 312 311 310 311 312 312 312 311 310 310 309 310 312 314 315 316 315 316 317 317 317 317 317 320 324 322 317 318 318 316 317 316 316 317 316 316 315 314 314 314 315 315 315 314 315 315 317 319 317 316 318 319 324 324 321 319 318 328 327 320 332 328 314 317 318 315 315 317 319 321 321 318 311 310 310 311 313 311 310 311 309 309 309 308 309 306
315 315 313 312 311 310 312 312 311 311 310 309 309 312 315 315 316 316 316 316 317 317 319 319 318 319 324 323 318 317 317 317 318 316 316 318 317 317 315 315 315 314 315 315 315 315 315 317 318 319 317 318 321 325 333 333 331 326 320 329 329 321 327 325 316 318 318 316 314 315 320 321 321 317 311 311 311 311 312 311 310 310 309 309 308 307 308 306
315 315 314 314 312 311 311 312 312 311 310 309 312 314 316 316 316 317 317 316 317 318 319 320 317 317 319 317 317 320 319 318 319 317 317 318 317 316 315 315 315 314 315 314 315 315 315 317 317 317 319 320 323 329 334 330 333 333 321 321 327 325 323 322 321 319 317 318 316 315 317 319 319 316 312 311 311 311 312 311 310 309 309 308 308 307 306 306
315 315 314 314 313 312 311 312 312 311 311 312 314 316 317 317 317 317 317 316 317 316 316 318 317 314 315 315 317 321 320 318 319 318 316 318 317 315 316 315 314 314 315 316 316 316 317 320 321 323 322 319 320 328 331 328 332 335 326 323 327 327 324 323 324 320 316 317 317 317 316 316 317 316 313 311 310 311 311 311 310 309 309 308 308 307 306 306
315 315 315 314 314 313 311 312 312 311 312 315 317 317 315 315 316 318 318 317 320 317 313 319 318 314 315 317 318 319 319 319 319 317 316 317 316 316 316 315 315 316 317 320 319 317 322 325 326 326 324 322 320 323 328 329 331 332 332 332 328 326 325 324 323 320 317 317 318 318 317 317 316 316 315 312 310 310 310 310 310 310 309 308 308 307 306 306
316 315 315 315 315 313 311 312 312 311 312 315 317 319 319 320 319 319 321 321 324 321 316 320 319 317 319 320 318 318 318 318 318 318 316 315 316 316 316 316 317 318 319 325 323 318 322 326 327 327 326 324 320 320 322 324 325 323 324 327 325 324 325 326 324 320 317 318 320 319 317 318 317 317 318 313 310 311 310 311 311 311 309 308 308 307 306 306
317 316 315 315 315 314 312 312 312 311 312 315 316 320 325 325 318 317 324 325 322 318 319 319 317 318 320 318 317 317 318 318 317 317 315 314 316 316 317 317 318 320 322 326 325 319 320 324 327 329 325 321 321 320 319 319 321 320 321 322 323 325 325 324 322 319 317 318 323 322 318 319 319 318 319 315 311 311 311 311 311 311 309 309 308 307 307 307
317 316 316 315 314 314 312 312 312 312 312 314 315 319 322 321 316 315 320 325 323 319 319 318 316 317 318 316 316 316 319 320 319 318 316 314 316 318 319 318 320 323 322 323 324 321 322 324 325 324 321 320 322 321 319 320 320 320 323 322 324 329 328 325 323 319 317 318 325 327 321 321 320 319 319 317 315 312 311 311 311 311 310 309 309 308 308 308
318 317 316 315 314 313 312 312 313 312 312 314 316 318 320 318 316 315 316 321 325 323 321 320 319 318 318 317 316 317 319 322 324 322 317 314 317 319 319 319 320 322 321 321 325 325 326 329 326 320 319 321 322 321 320 322 323 324 324 322 326 330 326 326 326 320 317 318 322 324 321 319 318 318 319 318 316 314 312 311 311 312 312 310 309 308 308 307
319 317 316 316 314 313 312 313 314 313 312 314 315 317 319 318 316 317 319 320 322 322 320 320 319 318 318 318 316 317 319 320 324 323 317 315 317 318 319 319 320 320 320 321 323 324 326 328 325 321 320 321 321 322 322 322 326 330 327 323 326 328 324 325 325 321 323 325 322 320 322 325 323 320 320 319 317 318 316 314 312 314 314 312 310 309 307 306
319 318 317 316 315 314 313 313 314 313 313 314 314 315 319 320 318 318 319 319 320 322 320 318 319 318 317 317 316 317 319 319 322 321 316 315 317 319 319 317 319 321 321 320 321 322 322 322 323 323 321 321 321 322 327 327 325 329 331 327 324 324 324 325 325 324 329 333 327 322 327 336 334 326 324 323 321 322 320 317 315 315 316 314 311 309 307 305
319 319 317 316 316 314 313 314 314 312 313 314 313 313 318 320 319 317 316 317 319 320 320 318 320 320 318 317 316 317 319 319 319 318 316 315 316 318 320 318 319 321 320 320 321 322 322 320 321 323 323 325 323 322 328 328 324 326 330 329 326 324 323 324 324 324 332 334 325 322 329 334 329 324 324 324 323 324 322 320 317 315 316 313 310 309 307 305
320 319 318 317 316 314 313 314 313 313 314 314 312 312 317 319 318 315 313 316 318 318 321 320 317 318 319 317 315 316 318 319 318 316 315 316 316 316 320 320 318 319 319 320 323 324 322 321 322 323 325 327 325 325 326 325 327 331 329 328 329 327 326 327 325 326 332 333 326 325 328 328 326 324 324 323 324 324 322 321 318 314 314 312 310 309 307 305
320 319 318 317 316 314 313 314 313 313 314 315 313 312 316 318 316 316 313 314 317 319 322 321 315 315 318 316 315 317 318 319 321 317 313 314 315 316 319 320 320 320 320 321 324 324 322 322 325 324 324 327 326 328 329 323 325 330 328 328 330 330 331 330 328 328 329 328 328 327 325 326 329 328 326 324 324 324 322 321 319 315 313 311 311 309 307 305
321 320 318 317 317 315 313 314 314 313 312 315 316 313 317 318 315 317 317 312 317 322 320 319 317 316 318 316 316 318 318 318 320 318 314 313 314 315 317 319 320 320 320 321 323 325 325 322 323 324 325 327 327 329 330 326 323 325 327 330 333 332 331 329 327 328 329 327 329 329 326 327 329 329 328 326 326 326 322 321 319 316 313 311 310 309 306 304
321 320 318 317 317 315 314 314 314 314 313 315 317 316 318 318 313 316 318 313 317 323 317 316 319 318 319 319 318 319 320 319 317 315 315 316 315 315 316 317 319 321 324 327 325 323 321 316 317 323 323 324 324 322 323 325 323 324 328 333 336 334 333 332 329 327 329 329 328 328 327 326 329 335 334 329 329 328 323 322 320 318 315 312 310 308 305 304
321 320 319 317 316 315 314 314 314 316 316 316 318 317 317 319 315 315 317 312 312 319 316 316 320 319 318 320 321 320 320 318 315 316 317 317 317 317 318 319 321 324 325 327 327 322 319 318 320 321 318 322 325 320 320 325 324 326 332 333 333 334 333 331 327 326 329 331 331 329 325 323 328 334 333 329 328 324 322 322 322 321 317 312 310 307 304 304
321 320 319 318 317 315 314 314 314 316 317 318 318 317 316 319 319 316 314 310 311 319 320 319 320 320 319 321 322 320 320 319 316 318 319 318 318 318 319 321 321 324 325 324 325 324 322 324 324 320 317 321 327 324 323 326 325 326 331 331 329 330 332 330 327 327 328 329 328 325 323 324 325 326 325 325 323 320 321 322 322 323 319 312 309 307 304 303
320 320 319 318 317 316 314 314 314 316 318 319 319 318 317 318 318 316 313 310 315 322 321 320 320 320 320 322 322 319 319 320 317 317 318 318 319 318 318 321 320 324 330 326 322 325 327 326 322 320 319 321 323 323 323 325 325 323 326 330 330 329 332 334 331 329 330 329 323 318 322 327 327 326 324 322 321 320 321 321 321 320 317 312 308 305 304 303
320 319 318 317 317 316 315 314 314 316 317 318 319 320 320 316 313 315 313 311 317 322 321 322 321 320 320 323 323 320 320 320 316 318 320 318 320 321 320 321 318 323 333 327 322 325 328 328 324 321 322 321 319 321 324 326 323 321 323 327 330 332 336 337 334 332 333 332 322 317 324 331 331 328 323 319 317 316 316 317 315 313 312 310 306 304 304 303
320 319 318 317 316 316 315 314 314 316 317 318 320 321 320 315 311 313 313 311 318 324 321 321 322 321 322 324 323 320 323 323 317 317 321 320 321 322 320 320 317 321 328 325 324 324 324 329 328 320 320 321 318 319 323 324 321 321 325 326 328 331 332 332 332 329 327 328 323 320 327 331 327 322 318 315 312 311 313 314 313 312 309 308 306 304 303 302
319 318 317 317 316 316 315 314 314 317 317 318 321 322 319 315 312 314 312 311 319 325 322 321 323 323 323 324 323 320 322 325 319 319 322 320 320 320 319 319 317 318 321 321 327 327 325 330 325 317 318 318 318 321 320 322 325 322 323 325 325 328 328 329 330 325 323 327 327 324 327 328 323 320 319 317 313 312 314 313 312 312 308 307 306 304 302 302
318 317 317 316 316 316 315 314 315 317 317 319 321 322 319 317 317 316 313 313 319 324 323 323 324 325 324 324 325 322 322 324 320 320 323 321 320 320 318 319 318 317 318 320 327 330 329 330 322 317 320 316 315 321 319 320 324 323 324 324 322 326 329 330 332 329 328 330 328 325 327 328 325 324 321 316 314 316 316 313 311 309 307 307 306 304 302 302
317 317 316 316 316 316 315 314 316 316 317 320 321 320 318 317 317 317 314 315 320 322 323 322 321 323 325 324 325 323 322 323 321 321 324 322 322 321 319 320 319 316 317 318 324 328 327 328 323 317 319 317 314 320 321 319 320 323 326 324 324 330 331 328 329 331 332 332 330 329 327 325 324 326 323 318 318 319 317 313 310 309 308 306 305 304 302 301
316 317 318 317 316 316 315 315 316 317 319 321 320 319 318 317 316 316 314 315 318 320 319 318 318 322 324 323 324 323 321 323 321 320 324 322 322 322 319 320 321 317 317 318 322 327 327 328 326 317 316 318 316 319 324 321 318 322 322 319 324 330 329 328 328 329 332 332 331 331 329 326 325 325 325 323 321 319 316 313 311 309 307 305 304 304 302 301
316 319 319 317 316 316 315 315 316 318 319 320 319 317 317 317 316 315 314 314 316 318 317 317 318 322 325 323 323 323 321 322 320 320 323 322 322 322 319 319 322 318 317 317 320 325 325 325 327 319 315 318 320 321 324 322 318 320 321 320 323 323 324 327 326 326 330 332 332 330 328 328 326 322 322 323 321 317 315 315 313 309 307 305 304 304 302 301
317 319 320 317 316 316 315 316 317 318 319 319 318 317 316 316 316 315 314 313 315 315 315 318 319 319 323 324 323 322 322 322 320 320 322 321 321 324 321 320 321 319 318 319 321 324 324 326 329 324 317 320 325 322 318 318 319 319 320 321 322 321 323 327 326 324 325 328 332 331 327 327 324 320 320 320 318 315 314 315 314 310 307 306 304 304 303 302
317 320 319 317 316 316 316 318 319 318 318 317 317 317 317 316 316 316 315 314 314 313 313 316 318 318 321 323 322 322 322 321 320 320 322 320 320 323 324 321 320 319 319 320 320 323 326 329 330 326 320 319 321 320 317 318 319 319 320 321 321 321 323 327 327 326 324 325 327 328 327 326 319 319 323 322 319 317 314 313 314 312 308 306 305 305 303 302
317 319 318 316 316 316 317 319 320 317 316 315 315 317 317 317 316 316 316 315 315 314 314 315 317 318 319 320 322 323 322 322 321 320 322 321 319 321 323 322 320 319 320 321 322 322 326 328 328 327 324 318 317 320 321 319 318 319 321 322 321 320 321 325 328 327 327 327 326 326 328 324 316 318 323 322 321 320 316 312 312 312 309 306 305 305 303 303
316 318 318 316 316 316 318 320 319 316 314 313 314 315 316 317 317 315 316 316 315 315 315 314 315 317 318 319 321 322 322 322 322 321 322 323 322 322 323 321 320 320 321 322 323 322 324 327 329 330 328 324 322 323 322 319 318 321 323 320 318 319 321 322 324 324 324 326 326 326 327 324 318 317 319 319 317 318 319 316 313 312 310 307 305 305 304 303
316 317 318 317 316 316 319 320 317 314 313 312 313 313 314 316 317 317 316 315 314 315 315 315 315 317 319 320 320 321 322 323 323 322 322 323 324 325 323 321 321 320 321 322 321 321 324 326 327 328 329 328 327 326 324 321 318 319 321 320 318 319 321 321 322 323 323 324 325 325 325 324 322 318 318 319 316 315 319 318 314 314 312 308 306 305 304 303
316 316 317 317 317 317 318 319 317 315 313 312 312 313 313 314 317 318 319 318 316 315 315 315 316 316 318 320 320 322 323 322 323 325 324 323 325 326 323 321 320 320 323 324 321 323 328 326 323 325 328 326 325 327 325 322 320 319 321 320 319 319 320 321 322 323 324 325 324 323 323 324 323 320 321 324 322 319 319 318 316 314 312 309 307 306 304 303
315 316 318 319 319 318 319 319 318 316 314 313 313 313 313 314 315 318 320 320 319 318 317 315 316 316 318 318 319 320 321 321 323 325 324 324 327 325 320 320 320 321 325 324 321 325 330 326 323 325 326 324 324 325 323 321 321 321 321 320 319 318 319 321 321 322 325 327 325 323 323 324 322 320 324 327 325 322 321 319 317 314 311 309 307 305 305 303
314 315 317 319 320 320 319 319 318 317 315 314 313 313 314 314 315 317 319 319 320 320 321 320 317 316 317 317 318 319 320 321 322 323 323 325 326 323 319 320 319 320 323 321 318 323 329 326 324 324 324 323 323 323 322 321 320 321 320 320 319 318 319 320 320 320 322 324 324 323 325 325 322 320 323 323 321 321 319 317 314 311 310 308 307 306 305 304
313 314 315 316 318 319 317 317 318 317 316 314 313 314 314 314 315 317 318 319 319 320 321 323 320 317 317 317 318 318 319 320 321 320 321 325 326 324 323 322 320 318 322 322 319 320 324 325 324 324 323 323 323 322 322 321 321 321 320 320 318 318 318 318 319 319 320 321 321 321 323 322 320 322 325 322 318 317 315 313 312 310 310 309 308 307 305 304
311 312 313 313 315 316 316 316 318 318 317 315 314 314 314 314 315 316 317 319 320 319 320 322 322 320 319 319 319 319 319 320 320 320 320 322 324 324 324 324 322 320 319 320 318 317 319 323 324 323 323 324 322 322 323 323 324 324 322 321 319 318 317 317 317 318 319 320 319 320 322 321 319 322 326 322 316 314 313 313 312 310 309 309 308 307 305 304
307 307 308 310 312 315 315 316 317 318 317 316 316 315 315 315 316 316 317 318 319 320 319 320 321 321 321 321 321 320 319 319 319 320 321 322 323 322 322 323 323 322 318 318 319 317 317 322 323 322 324 324 322 322 323 323 323 323 323 322 320 319 318 317 317 318 318 319 320 319 320 319 318 321 322 320 318 316 315 314 312 309 308 308 308 307 305 304
306 305 307 308 309 312 314 315 315 315 315 314 314 315 315 315 315 316 317 318 318 319 319 320 320 320 322 323 321 321 321 321 322 323 324 325 324 323 324 324 322 322 320 318 318 318 319 320 321 322 324 323 323 324 323 321 322 323 323 322 320 320 320 318 317 317 317 318 319 320 320 318 319 322 322 320 320 320 317 314 312 310 308 306 306 307 305 304
Wind_Speed
2 1 1 1 1 1 1 3 4 4 4 3 3 3 3 3 3 3 3 3 3 3 3 3 4 4 5 6 8 8 9 7 4 4 2 1 1 2 2 2 3 3 3 4 7 9 9 5 3 6 4 2 2 1 3 2 2 5 4 4 2 0 1 2 1 3 4 5 4 4 3 6 3 1 0 1 5 5 5 6 4 6 7 6 8 9 7 6
2 1 1 2 1 1 1 2 3 4 4 3 3 3 3 3 4 4 3 3 3 3 3 3 4 5 5 6 8 8 9 6 3 4 3 1 2 3 2 3 4 3 3 4 7 10 8 5 7 8 5 1 2 2 2 2 3 4 3 4 0 2 2 2 2 2 3 6 6 3 4 6 6 3 1 0 0 4 6 4 3 6 5 5 8 10 9 10
2 1 2 2 2 2 2 2 2 3 3 3 3 3 4 4 4 4 4 3 3 3 3 4 4 5 6 7 8 8 8 3 3 2 3 2 4 4 3 4 3 2 3 4 5 8 6 6 9 5 4 1 1 2 3 2 2 2 4 4 3 4 3 3 4 3 2 6 7 3 4 5 3 2 2 2 2 3 5 3 3 4 4 5 7 11 12 12
2 1 2 3 3 3 2 3 3 2 2 3 4 4 4 4 4 4 3 3 2 2 3 4 5 6 6 7 8 7 6 3 1 1 2 4 4 5 5 5 3 3 3 5 5 5 5 8 8 3 3 2 2 3 3 2 1 2 4 4 4 3 3 2 3 4 3 5 7 4 4 4 1 1 2 3 1 1 4 5 5 7 9 8 7 10 13 13
2 1 2 3 3 5 4 4 3 2 2 2 3 4 4 3 4 3 3 2 2 2 3 4 5 6 7 7 7 7 4 3 1 2 3 5 6 6 6 5 4 4 3 5 5 5 6 7 4 4 3 2 3 4 2 2 3 3 1 4 3 4 3 3 2 3 2 5 5 5 4 2 1 0 2 4 3 4 5 4 5 9 11 10 9 11 13 13
1 1 2 3 3 4 5 4 4 3 2 1 1 2 2 2 2 2 2 2 2 3 4 4 5 6 6 7 7 6 1 1 3 5 5 7 8 8 7 6 4 4 4 5 7 6 5 4 4 3 2 2 1 3 1 3 4 3 1 1 2 4 4 3 2 1 3 6 4 4 2 1 2 2 3 6 5 5 4 4 6 9 12 13 12 12 10 10
2 2 3 4 4 4 5 5 4 4 4 2 1 1 1 1 1 1 2 2 2 3 4 4 5 5 5 6 6 3 3 2 4 7 7 8 9 7 6 5 4 4 4 7 9 5 3 5 3 0 2 3 2 3 0 3 5 5 1 2 3 2 4 4 3 2 4 6 3 4 2 1 3 2 2 4 3 4 6 7 10 12 14 14 11 9 9 10
4 3 4 5 5 5 5 5 5 5 5 4 3 3 2 1 1 1 2 2 3 3 4 4 4 4 5 4 2 3 1 2 5 8 7 9 8 6 5 3 3 4 5 7 7 4 3 5 2 1 4 2 2 2 1 4 6 3 1 2 2 1 2 5 5 3 3 3 4 5 2 4 6 3 1 4 6 5 7 8 9 11 12 11 8 8 9 10
5 5 4 5 5 5 6 6 6 5 5 4 4 4 3 2 2 2 2 3 3 3 3 3 3 3 5 4 2 3 2 2 6 8 7 8 6 5 3 2 2 2 5 4 4 4 2 2 1 2 3 1 3 2 2 5 2 1 2 1 1 2 3 4 5 5 4 3 4 4 3 6 5 3 2 5 9 6 7 8 7 8 8 7 7 7 9 9
6 6 5 5 5 5 6 6 6 6 5 4 4 4 4 4 2 2 2 2 2 3 3 3 3 2 3 3 4 2 2 3 7 8 6 6 6 5 3 1 2 1 4 4 4 5 2 1 1 2 4 0 2 2 2 4 2 2 2 2 3 5 5 3 5 6 4 3 5 5 4 5 3 2 3 3 8 7 8 7 6 7 7 7 6 7 10 10
8 7 5 5 5 6 6 6 6 6 5 4 4 4 4 5 3 2 2 2 2 2 2 2 2 2 2 3 5 2 3 4 7 8 7 6 6 5 4 2 1 1 4 3 4 5 3 2 3 1 2 1 1 2 2 2 2 2 3 4 6 5 6 4 5 5 3 2 5 7 3 4 3 1 4 5 8 8 9 8 6 7 6 7 6 6 8 10
9 8 6 5 6 6 6 6 7 6 5 5 5 4 4 5 3 2 2 2 2 2 2 1 1 2 1 3 2 4 5 6 7 8 7 6 6 5 4 3 1 1 2 3 2 3 4 5 6 4 1 1 2 3 1 1 2 2 4 2 7 6 5 7 6 5 5 2 5 7 2 4 3 5 3 7 9 7 8 8 7 7 6 6 6 5 7 10
10 9 8 7 7 7 6 7 7 7 6 6 6 5 5 4 2 2 2 2 2 2 2 1 0 1 1 1 2 5 8 8 8 7 7 6 5 4 4 3 2 1 1 1 1 2 3 4 7 5 1 3 2 0 1 0 2 0 1 2 3 6 5 8 4 5 6 2 4 6 2 5 7 7 2 6 9 8 8 7 7 6 6 6 6 5 6 9
11 11 10 10 9 7 7 8 8 8 7 7 7 6 4 3 2 2 2 2 2 2 2 2 1 0 2 0 2 6 9 8 8 8 8 7 6 5 4 3 2 2 1 1 2 3 2 3 6 4 1 3 2 0 2 3 2 0 1 1 1 2 5 7 1 8 6 1 3 6 1 6 8 6 4 6 8 9 8 7 7 6 6 6 6 6 5 7
12 11 11 12 11 8 8 10 9 10 9 8 6 4 2 1 2 1 2 2 2 3 2 1 2 1 3 2 2 6 8 7 8 9 9 8 6 5 4 4 3 2 2 1 2 2 2 3 4 3 1 1 3 3 3 3 2 1 1 3 2 2 5 7 1 8 7 1 3 6 2 6 8 6 6 6 6 8 8 8 8 7 8 7 6 6 5 6
13 12 12 12 11 8 9 10 11 12 12 8 4 1 1 2 2 1 2 2 2 3 2 1 1 2 2 1 2 5 6 5 8 9 9 8 6 6 7 6 5 4 3 2 3 2 3 5 3 2 1 2 4 5 3 4 4 2 2 3 2 3 4 4 3 3 6 3 1 3 3 4 5 4 6 6 7 7 7 8 9 9 9 8 7 6 6 6
14 13 13 12 10 9 9 9 11 12 10 4 1 1 2 2 2 2 2 2 3 3 2 2 1 1 0 1 2 3 5 7 10 11 10 9 8 9 8 6 4 4 4 4 3 2 3 3 1 0 2 2 2 5 5 3 4 4 0 3 4 3 2 1 4 4 5 5 3 4 4 6 6 4 6 7 8 8 8 9 10 10 9 8 7 7 7 7
15 15 14 12 11 9 9 10 10 10 6 1 0 1 2 2 2 2 2 3 4 2 1 1 2 1 2 3 3 3 5 9 11 11 11 10 10 10 6 3 4 5 4 3 2 2 2 3 2 1 2 2 1 5 3 3 4 2 2 2 3 2 2 3 3 3 6 5 4 4 5 10 10 6 7 8 9 9 10 10 9 10 10 9 8 8 8 8
16 16 15 14 12 11 10 9 8 7 3 1 1 2 3 2 1 1 2 3 3 2 1 3 3 3 2 3 3 5 8 11 9 8 10 10 9 8 4 4 5 5 4 2 2 0 2 3 4 2 1 2 4 6 7 8 7 6 5 4 4 3 4 4 4 4 6 4 5 7 7 10 11 9 8 8 8 9 10 8 7 8 8 8 8 8 9 9
17 16 15 14 13 12 9 8 7 6 3 0 2 2 2 2 2 1 2 2 4 4 2 4 7 4 1 2 5 9 10 8 4 5 10 10 9 8 3 2 4 4 2 4 2 1 3 3 2 4 6 7 8 9 9 7 5 4 2 2 4 4 5 4 3 5 4 4 6 8 8 9 10 9 9 8 8 9 10 9 9 9 9 9 10 9 9 8
18 17 15 14 14 13 10 7 7 5 4 1 3 2 1 2 2 1 3 4 10 11 6 5 8 3 1 6 12 13 8 3 2 3 11 10 9 8 2 2 4 0 3 4 2 0 3 4 6 8 9 8 9 9 8 7 6 5 4 3 4 3 5 5 2 3 2 3 6 6 6 9 10 9 9 5 7 10 13 13 13 12 11 9 10 10 8 5
19 18 16 15 13 13 9 6 5 4 5 4 3 4 4 2 1 0 1 2 9 14 12 8 6 5 1 7 16 13 5 3 1 3 10 9 6 5 2 3 5 4 3 3 3 0 2 4 9 11 7 6 7 6 6 6 6 6 3 2 3 3 4 5 3 2 1 3 4 5 5 9 10 9 9 7 9 11 14 16 15 13 12 10 10 10 8 7
20 19 17 15 13 10 8 6 5 5 8 7 6 7 3 5 2 2 1 1 5 8 8 7 7 7 4 3 11 12 3 5 4 4 11 10 4 4 5 5 5 4 3 4 5 4 3 5 10 11 6 6 7 6 5 3 2 4 3 3 3 4 2 3 4 4 2 2 3 5 6 7 9 8 10 12 10 9 11 14 12 10 12 14 13 12 12 13
21 20 18 16 14 10 8 7 6 8 11 10 13 13 3 2 2 3 1 1 4 5 6 11 9 7 8 5 11 12 3 5 6 5 14 12 4 3 5 6 6 4 4 7 9 7 7 7 6 7 7 8 6 5 6 5 2 3 4 5 4 3 5 6 4 3 3 4 3 4 6 6 7 8 10 9 6 7 9 9 9 9 10 10 10 11 12 14
22 21 19 17 15 11 8 7 9 12 13 11 17 17 8 2 3 4 2 1 4 4 4 9 6 6 12 10 13 11 1 4 4 8 18 16 9 4 3 4 4 5 7 8 8 7 9 7 3 4 6 7 7 6 6 7 4 4 4 7 7 7 8 7 2 3 4 5 3 2 3 6 4 5 9 6 3 6 6 6 11 11 9 9 10 11 11 10
25 23 21 20 17 13 8 6 10 13 12 14 16 15 11 6 2 3 1 3 5 3 1 5 4 8 14 10 10 6 1 5 2 10 21 18 10 5 3 3 2 5 8 5 4 4 5 7 6 5 6 7 8 6 5 7 5 3 4 6 7 8 8 7 3 1 1 4 3 3 1 7 7 6 9 7 8 11 8 7 11 10 9 10 11 11 11 10
27 25 23 22 19 17 11 4 9 13 9 11 14 14 13 11 7 4 2 4 5 3 5 3 2 7 11 11 12 7 2 4 3 6 12 11 8 2 3 6 3 4 4 3 3 3 4 7 8 8 6 7 7 5 6 7 7 4 6 5 5 5 6 5 3 2 3 3 4 3 2 5 9 7 7 8 10 13 12 10 11 10 10 10 9 10 11 11
29 27 25 24 22 23 15 7 11 17 11 2 4 14 16 12 9 3 4 0 4 3 4 1 1 4 5 10 14 8 2 3 6 2 1 4 4 1 3 8 6 7 5 5 6 5 3 7 9 10 7 6 6 5 6 9 6 5 5 5 6 6 5 3 4 1 1 2 4 3 2 3 9 6 3 4 7 10 12 13 13 12 11 9 8 8 9 10
31 28 28 26 23 23 19 12 12 17 16 2 1 13 16 11 7 3 4 3 2 2 2 2 2 2 5 7 9 5 2 2 2 3 2 3 2 2 3 6 5 8 6 4 7 4 2 5 7 8 7 6 4 1 3 7 6 4 3 5 5 4 4 5 4 2 3 2 5 5 3 4 7 4 2 2 4 8 10 11 12 11 10 9 8 8 8 8
33 31 31 28 25 26 24 21 20 17 14 8 6 13 14 7 3 4 1 4 1 1 1 2 3 4 9 10 4 2 3 2 1 1 2 1 2 4 1 1 4 5 2 3 1 2 1 1 2 3 4 5 5 2 2 3 6 6 6 6 6 5 5 4 2 4 2 4 6 9 10 7 6 4 4 4 5 7 7 7 9 7 8 10 9 8 8 8
37 35 33 33 32 31 23 20 27 20 13 13 12 12 11 2 2 4 6 2 1 2 3 1 2 6 13 14 7 4 3 2 1 5 3 2 1 3 1 1 3 2 2 4 3 4 4 1 1 1 2 4 6 4 3 3 3 6 5 5 3 4 4 4 4 4 1 5 6 10 10 9 7 6 3 5 5 5 6 6 8 8 8 10 9 9 9 9
40 38 37 37 35 34 25 20 28 24 13 16 15 9 7 2 1 6 5 1 1 4 6 4 4 7 12 13 10 9 6 2 4 7 6 4 4 5 5 6 6 2 3 5 3 3 3 3 3 1 1 4 6 4 3 6 4 5 5 6 3 2 3 3 2 0 3 6 5 5 5 6 9 8 8 11 11 10 7 6 7 9 8 9 9 9 9 8
41 40 41 41 39 40 33 22 25 25 17 19 15 3 3 4 6 9 8 4 2 2 4 5 6 9 12 10 6 7 5 2 5 6 4 4 5 7 5 4 6 3 2 5 4 2 3 5 1 1 3 3 8 7 3 2 1 5 6 6 5 3 1 3 3 2 4 5 5 1 4 3 5 6 11 15 15 13 8 5 7 8 9 10 9 9 8 8
41 40 43 45 43 43 36 24 25 26 21 19 11 3 6 7 8 11 13 10 3 2 2 4 7 9 10 6 4 6 4 2 6 6 3 5 5 6 4 5 7 3 3 4 3 5 5 6 4 8 3 5 11 9 6 6 5 5 5 6 5 5 4 4 4 3 4 4 4 1 3 4 3 3 7 8 8 7 4 3 2 3 5 7 7 8 8 9
42 42 42 43 40 41 38 30 28 28 22 13 5 6 10 9 8 10 12 10 4 3 2 5 8 7 6 3 2 7 5 2 6 5 4 6 5 6 7 8 12 7 4 4 2 4 6 7 6 7 3 9 12 6 6 8 3 3 3 5 3 5 5 3 3 5 2 2 3 2 3 5 5 5 6 4 4 4 5 2 3 4 4 6 7 7 8 8
40 43 38 39 39 41 41 35 32 32 23 9 5 8 10 9 10 9 6 7 6 5 6 5 5 5 5 3 3 6 3 3 6 5 3 5 4 6 7 6 11 12 9 7 3 3 4 5 3 2 2 5 8 4 4 5 4 2 2 4 4 4 5 2 3 1 2 2 4 3 5 5 3 7 8 6 3 3 4 3 4 5 5 7 7 8 8 8
32 35 28 33 38 41 43 39 36 33 19 9 10 11 9 10 12 8 3 4 7 9 8 4 3 5 6 4 4 7 3 3 6 5 3 3 3 8 9 4 8 16 14 7 2 3 5 2 3 2 1 3 2 3 2 1 4 6 4 5 2 2 2 2 1 3 2 4 4 3 7 5 2 6 4 3 4 7 8 6 5 4 6 8 8 8 9 9
22 22 17 28 39 41 44 44 38 27 11 7 12 11 9 12 16 13 8 4 7 10 7 6 6 6 7 7 5 8 7 4 7 6 4 4 5 8 12 6 8 18 16 7 3 3 4 2 3 1 2 3 2 4 3 3 2 5 4 5 4 2 1 2 2 1 1 4 5 3 7 6 6 5 1 3 8 11 11 7 6 8 10 10 9 9 9 8
15 10 8 25 40 40 46 47 33 16 7 8 11 10 11 17 20 16 10 5 4 8 9 10 8 5 7 9 7 8 9 7 9 7 4 6 5 7 14 10 7 15 16 10 6 3 2 3 3 1 1 1 2 3 4 2 1 2 1 3 2 2 4 4 3 3 3 3 4 3 3 4 6 6 6 9 12 13 12 9 9 12 13 11 9 9 9 9
9 4 4 20 38 42 48 41 19 6 6 9 11 12 13 16 16 13 11 8 4 6 9 10 8 6 7 9 9 9 8 7 9 8 5 7 5 5 10 10 7 10 15 14 9 2 2 3 3 2 2 1 2 4 8 11 7 4 3 4 3 1 2 1 2 3 4 3 3 4 6 4 4 5 9 11 12 13 12 11 12 13 12 11 10 10 9 10
5 4 2 18 38 45 39 21 7 5 6 9 12 14 12 8 6 8 11 11 7 4 5 6 8 9 7 8 9 9 7 6 8 8 5 7 6 4 7 10 10 10 11 10 9 5 3 3 3 2 1 3 6 6 7 9 8 7 7 8 8 5 4 1 4 2 3 3 4 3 8 8 4 3 6 9 10 11 12 13 12 12 12 12 11 11 11 10
3 4 4 23 44 44 24 7 5 7 6 9 12 9 5 2 2 5 8 10 10 8 5 4 7 10 7 8 8 8 8 6 8 7 5 8 9 6 8 11 13 14 12 10 10 7 4 3 3 3 4 6 6 5 2 2 3 4 3 5 6 6 6 5 6 4 2 3 3 1 6 8 2 2 4 6 8 8 9 11 10 10 11 11 10 10 10 10
3 3 5 29 51 42 14 7 10 7 5 9 9 5 2 2 5 6 5 8 10 9 7 6 6 8 7 6 7 9 9 7 10 12 8 8 9 7 8 11 13 15 11 8 7 3 2 3 3 1 2 2 3 5 5 4 4 3 1 4 6 7 6 6 5 3 2 5 3 2 7 8 1 0 2 3 5 4 5 7 9 8 7 9 11 10 10 10
3 3 2 25 50 39 12 7 10 7 6 8 9 10 7 4 6 9 9 10 10 8 9 10 8 7 7 6 6 10 12 8 9 13 10 6 7 7 10 14 14 14 10 7 8 6 4 4 3 2 2 3 3 3 3 3 0 3 4 5 8 8 5 2 1 2 4 8 7 4 10 8 1 3 3 4 4 3 4 5 7 7 6 8 10 9 9 9
3 3 1 12 29 24 9 8 10 9 9 9 9 13 13 8 5 9 11 11 10 9 10 11 9 5 3 5 5 7 12 12 9 9 8 6 4 4 10 16 16 13 9 8 11 10 6 5 6 6 6 8 7 5 3 3 3 3 4 6 10 11 10 6 1 4 9 7 8 8 14 8 2 3 4 4 4 3 6 5 5 7 8 8 8 8 9 9
3 4 2 5 9 9 7 9 10 9 9 8 7 10 16 15 8 7 9 10 10 12 11 10 8 4 3 5 5 5 10 13 7 5 6 8 4 2 6 14 17 14 10 9 10 7 4 4 9 11 11 12 12 7 6 8 6 6 9 11 13 14 14 10 6 9 8 2 5 14 14 12 11 5 4 7 4 5 7 5 5 7 7 7 8 9 9 9
3 3 5 5 4 6 7 8 10 10 10 10 7 7 15 19 13 7 7 8 9 11 11 11 9 8 8 9 8 8 9 8 6 5 7 8 4 3 2 6 12 13 10 11 10 6 4 3 10 14 15 16 17 12 10 13 12 14 15 14 14 15 15 14 14 14 7 4 11 16 8 13 23 12 8 10 6 5 8 8 8 8 7 8 7 8 9 9
3 3 4 5 4 5 6 8 12 15 15 14 8 7 13 18 16 12 9 9 9 8 7 9 13 16 17 14 10 9 9 8 7 8 7 5 3 1 2 2 2 4 5 7 7 5 5 6 10 13 15 18 20 15 11 13 12 12 14 16 16 16 18 21 23 18 9 7 18 17 10 17 24 10 10 13 9 10 12 10 8 7 6 6 7 8 10 11
3 2 3 2 3 5 4 6 11 17 20 17 11 10 14 16 18 16 10 7 8 9 7 9 15 20 21 17 12 10 10 10 11 12 9 6 4 5 4 1 1 1 3 5 5 2 3 6 7 10 13 17 20 15 10 11 8 7 11 14 15 19 24 25 22 17 13 15 23 21 15 21 19 6 10 13 10 10 8 5 6 7 8 8 9 11 12 12
2 1 1 3 3 4 3 4 7 11 14 15 13 13 14 17 20 17 11 9 11 13 13 14 17 16 16 16 13 13 15 15 17 16 10 7 4 4 5 4 3 2 2 4 2 1 2 3 3 6 7 14 18 12 7 9 9 8 9 13 17 21 21 17 14 14 14 19 24 21 18 21 13 6 8 8 5 5 4 5 8 9 9 10 11 12 12 13
3 1 2 1 3 4 4 3 4 5 6 9 12 12 14 19 21 16 12 13 14 12 13 19 21 13 10 13 15 17 18 17 16 13 8 8 7 6 5 5 7 6 4 4 2 1 3 2 2 4 5 13 14 8 7 7 6 6 12 19 23 19 12 10 12 15 16 18 20 16 15 19 11 5 6 5 6 8 9 10 10 9 9 11 12 14 14 14
4 1 3 1 3 4 5 3 5 5 3 4 8 9 10 14 15 12 8 8 12 13 12 17 21 13 9 14 17 17 14 8 6 4 4 5 4 4 4 5 8 10 8 6 3 2 5 4 2 5 7 14 11 7 10 6 3 7 16 24 24 17 12 12 13 16 16 15 14 13 15 19 10 5 7 8 8 11 12 10 10 10 10 12 14 15 15 15
Wind_Direction
284 278 278 302 304 302 277 209 194 190 186 188 192 187 184 180 190 197 208 213 228 250 267 285 297 309 319 327 325 329 339 346 7 38 59 275 310 148 133 93 104 90 62 17 4 7 5 17 12 3 14 6 24 16 4 7 49 57 73 79 53 291 27 311 180 176 157 142 184 200 124 120 161 287 71 37 61 90 71 62 58 46 63 99 119 126 121 119
293 295 291 299 288 305 321 256 211 196 193 185 177 186 183 183 199 198 204 213 231 250 268 286 301 309 318 328 322 329 339 347 57 52 24 286 172 151 143 109 113 96 40 24 19 15 11 350 339 2 33 25 341 21 23 345 57 74 103 81 173 186 40 327 134 100 124 148 174 159 107 122 160 180 97 59 329 109 92 58 71 73 70 100 118 120 116 110
299 308 312 319 315 308 316 315 263 211 196 178 168 178 182 188 197 193 197 207 228 250 276 290 302 309 317 319 318 329 335 359 82 22 13 91 131 137 126 114 113 79 20 35 27 6 355 315 321 351 50 30 307 52 47 1 48 88 102 79 245 192 85 13 64 70 120 145 144 127 93 108 154 172 115 174 203 131 143 163 129 133 151 146 129 117 113 106
273 293 322 331 332 324 323 335 313 246 205 184 174 174 183 188 188 191 197 202 228 258 280 290 301 304 309 309 313 325 337 41 78 291 70 108 123 122 116 107 81 51 23 35 27 357 338 316 319 354 66 22 326 50 53 350 49 58 101 142 225 161 97 354 76 76 62 105 127 131 90 89 263 217 139 147 121 212 205 206 192 176 165 160 150 123 114 106
271 299 320 328 330 329 327 329 315 274 230 197 178 176 180 183 184 188 193 210 238 264 279 287 295 295 300 303 309 321 353 54 238 215 115 122 121 113 106 92 71 51 42 33 7 343 322 311 345 41 60 38 348 41 11 297 91 63 80 168 193 100 115 222 130 72 52 90 103 109 101 134 218 335 175 151 178 228 207 203 183 157 154 155 147 129 117 109
282 316 325 326 321 319 321 321 319 300 275 240 185 182 188 197 190 190 204 228 251 269 282 283 285 289 298 300 308 319 44 107 220 171 131 128 119 107 96 80 63 45 36 12 348 338 323 332 28 38 52 71 82 102 268 304 83 93 304 71 38 75 139 189 127 67 80 94 101 129 157 166 85 313 233 168 194 207 158 138 128 129 142 144 133 126 121 116
277 303 322 327 322 315 315 317 312 306 298 286 280 259 246 250 219 218 230 249 263 275 279 278 282 285 301 308 316 346 118 177 203 166 150 134 123 110 97 74 55 44 24 6 359 354 358 24 31 131 72 63 110 124 161 346 63 98 259 337 6 70 133 148 149 158 104 112 153 133 112 132 141 233 247 179 199 154 129 118 116 121 129 130 123 122 126 125
263 282 306 312 315 317 310 309 305 303 302 297 307 305 284 278 268 273 280 277 272 275 271 272 285 292 316 321 331 28 61 207 184 171 160 139 131 121 110 85 71 47 20 5 358 352 14 34 22 62 62 56 105 97 50 31 36 77 134 287 322 360 168 155 150 158 138 152 155 109 118 224 193 180 250 203 182 146 132 121 121 122 118 121 123 126 127 127
249 255 284 293 302 314 310 308 305 303 303 300 308 308 299 293 292 300 292 284 272 267 272 272 281 309 330 337 80 63 325 212 168 167 156 141 138 137 138 108 111 51 10 341 348 7 23 52 15 78 105 168 87 82 69 67 25 190 144 302 320 283 245 167 160 177 183 193 130 111 246 260 234 190 269 204 169 155 131 128 135 126 120 127 131 136 134 131
253 252 262 279 292 301 303 306 304 303 297 291 303 307 308 307 303 294 274 271 266 263 273 273 277 317 334 3 74 78 277 180 163 166 158 151 154 161 180 172 137 60 353 330 25 43 76 113 324 136 133 87 59 94 85 96 173 195 99 351 295 267 272 188 196 205 184 204 163 159 235 276 302 204 255 204 159 151 130 140 151 129 133 138 134 141 138 135
251 256 258 269 283 291 299 299 299 301 287 275 290 297 308 313 303 280 260 231 241 250 258 277 290 300 325 64 91 164 208 171 166 165 167 169 172 186 189 177 163 66 349 356 58 60 64 30 356 74 101 53 55 56 48 101 144 130 81 350 301 287 292 247 229 221 160 211 181 158 223 295 360 251 229 175 155 152 140 153 158 138 145 144 140 140 137 139
253 257 262 264 269 280 299 299 294 294 283 272 272 279 298 302 294 266 242 211 228 235 228 268 306 293 351 79 131 197 187 173 165 158 166 170 175 191 177 167 187 159 352 12 73 66 54 25 38 69 99 119 91 51 50 216 118 112 93 356 301 336 314 250 236 202 150 191 174 135 324 299 222 234 227 149 153 149 142 157 163 152 155 151 150 142 143 149
266 262 261 262 267 274 290 300 299 289 277 272 268 272 284 285 287 259 228 209 214 218 219 211 265 319 56 73 217 187 178 168 156 150 155 161 170 178 167 174 196 192 336 28 110 82 64 30 61 92 137 97 107 122 130 139 97 94 92 139 304 358 317 255 228 165 147 175 159 129 312 276 237 248 232 150 155 141 145 170 172 162 161 161 161 150 155 158
273 270 265 261 262 267 279 289 299 294 279 271 267 270 281 282 275 243 212 213 206 215 227 193 200 85 79 247 213 171 171 158 149 149 148 150 149 145 148 160 166 168 159 94 97 79 72 31 62 82 61 93 139 200 43 18 71 99 352 57 10 23 288 292 259 152 155 234 123 113 245 262 268 267 212 182 166 150 162 183 178 172 172 170 169 160 164 168
266 272 273 267 262 255 267 281 292 301 290 271 262 275 296 276 257 234 201 209 203 207 212 203 208 111 57 307 219 161 165 159 156 157 153 152 144 136 135 135 127 113 118 106 104 99 76 44 59 78 352 20 71 64 22 353 356 78 74 320 344 165 264 314 354 156 158 257 95 113 213 269 276 248 197 195 179 166 171 186 186 181 181 178 178 170 167 168
256 264 272 275 277 256 254 277 289 298 296 276 256 255 231 224 222 195 196 194 184 180 135 70 186 124 80 288 167 158 177 182 173 168 165 159 151 141 131 121 107 96 106 107 106 110 65 51 59 110 98 42 74 83 43 12 342 351 136 250 260 179 268 319 309 208 150 129 164 173 227 271 277 229 196 198 191 183 180 193 195 189 189 184 181 177 172 167
252 256 265 276 287 266 249 267 284 294 295 277 219 180 187 190 190 187 189 172 167 160 115 71 76 108 118 162 163 194 191 180 176 175 172 158 146 144 133 119 116 111 98 83 79 65 39 48 75 131 66 67 102 92 58 4 305 317 114 234 248 201 227 276 293 278 138 135 209 226 240 253 266 237 205 207 195 193 200 203 201 195 193 189 184 182 180 176
252 252 257 268 281 273 251 254 275 293 293 280 71 193 149 139 161 160 146 155 147 97 27 321 85 80 258 204 182 189 160 163 170 172 173 157 145 151 144 124 132 114 81 48 21 43 32 22 69 60 27 34 111 104 107 227 214 199 184 209 268 274 224 211 257 243 154 163 208 204 242 255 263 256 222 215 197 199 215 211 207 203 194 190 189 187 185 182
253 252 251 257 268 274 259 250 274 292 283 307 66 111 100 84 74 163 156 144 141 127 198 218 154 130 232 217 157 118 128 146 154 168 172 159 151 160 151 128 125 102 86 52 332 161 98 37 57 94 215 207 193 169 184 207 179 169 176 170 206 259 275 234 235 225 169 172 222 207 227 248 255 253 235 223 203 206 226 230 224 213 199 192 194 194 189 187
252 251 251 251 254 269 264 249 271 275 245 308 30 68 97 91 46 294 238 192 215 211 178 186 181 151 125 173 126 118 125 130 130 167 169 161 152 145 122 92 90 65 107 152 207 237 115 110 156 195 209 202 202 203 205 207 193 192 196 200 208 217 272 270 255 253 167 151 239 224 229 250 252 255 247 222 200 211 228 234 231 215 202 196 197 198 189 185
248 247 250 248 248 263 262 246 256 250 215 224 349 351 176 148 127 235 234 244 252 249 262 222 198 201 134 158 155 144 131 96 41 164 166 165 147 138 151 93 99 82 222 158 156 345 118 161 217 223 214 199 203 212 215 223 234 247 246 259 267 236 258 273 269 263 175 168 261 256 252 262 257 257 260 212 181 215 221 219 225 215 206 202 197 196 181 160
244 245 246 244 248 260 259 245 248 237 213 225 276 262 279 311 99 168 200 271 268 243 242 246 233 260 253 163 170 159 115 87 117 203 177 165 147 159 179 116 134 207 214 116 92 143 178 220 236 233 216 201 228 226 204 219 227 231 219 199 255 260 275 296 312 306 176 187 261 280 269 266 263 258 262 230 197 219 219 213 219 208 200 203 195 188 170 155
239 241 241 239 244 253 247 230 232 244 224 220 237 225 277 326 335 6 180 268 290 240 219 225 227 226 204 171 180 170 138 156 167 229 191 163 155 180 150 143 175 191 169 150 152 173 205 242 236 228 210 202 248 252 190 187 221 206 175 159 233 259 267 287 298 293 262 226 258 287 283 267 267 265 258 244 224 230 229 222 224 210 202 204 195 186 174 170
235 235 235 234 235 241 243 225 220 236 226 230 239 218 168 6 313 354 354 258 280 258 214 203 205 202 189 179 178 175 191 185 163 197 190 169 143 162 156 166 175 170 195 195 183 192 214 232 220 197 199 202 224 239 185 167 255 257 200 188 212 240 226 230 269 314 326 326 327 325 309 276 256 253 255 259 252 251 241 225 228 226 216 203 190 189 183 178
230 229 230 226 226 230 232 224 222 226 221 236 242 218 180 167 300 342 3 334 272 280 251 203 200 200 186 169 169 169 180 226 190 173 181 176 155 145 180 180 159 185 211 201 193 218 231 234 214 160 196 202 204 220 191 168 210 280 243 202 207 223 232 239 280 20 10 320 315 49 317 283 266 244 253 283 315 268 246 215 222 223 212 193 186 191 188 182
227 226 223 219 219 213 207 222 223 214 214 237 235 207 190 198 248 297 47 20 281 259 157 182 182 186 179 161 156 137 44 252 236 155 170 181 177 138 165 185 133 196 201 188 197 235 222 209 208 195 191 191 200 221 214 170 161 256 248 198 201 215 231 246 256 356 267 265 292 83 158 274 285 257 247 260 270 264 256 233 230 222 208 200 193 189 182 178
225 222 218 215 211 197 190 207 204 189 195 246 234 194 192 205 221 253 72 25 282 195 141 193 191 170 169 162 152 130 222 219 80 134 166 182 197 113 154 187 160 191 184 146 229 261 178 176 191 192 178 179 191 213 216 166 142 232 241 168 153 175 206 224 190 184 218 251 322 17 116 270 281 265 239 230 242 258 258 246 240 226 213 209 198 186 180 177
222 220 215 212 208 199 192 170 174 187 190 264 230 187 188 204 213 210 87 347 273 131 129 234 152 135 141 158 157 142 238 168 114 200 190 146 192 70 179 195 174 185 179 155 215 267 163 166 181 179 174 185 196 215 197 154 147 237 222 142 120 135 151 130 104 114 325 7 307 294 107 263 271 269 261 225 225 251 255 245 242 231 213 205 198 187 176 174
219 216 213 210 208 206 204 198 185 202 210 195 133 192 186 192 197 89 78 203 249 96 130 146 130 125 117 147 167 149 39 40 129 229 4 107 173 48 181 198 155 175 202 185 203 247 189 183 181 163 173 195 194 222 170 156 181 212 141 92 69 77 77 69 81 72 30 337 248 222 173 242 269 257 230 240 227 242 248 246 246 232 207 197 193 181 170 167
219 215 212 204 201 202 207 222 221 211 211 212 215 191 175 172 151 98 165 216 248 254 131 127 163 162 147 150 180 169 98 33 32 108 54 103 17 19 137 158 88 138 244 337 237 245 294 238 178 144 173 177 145 92 54 166 175 139 92 58 39 23 33 40 39 75 54 277 236 207 193 203 269 270 200 219 224 221 230 248 256 234 192 192 188 175 171 166
218 213 207 199 199 196 195 222 220 199 189 201 196 171 159 132 79 160 202 230 321 204 134 134 178 151 157 160 171 181 130 61 147 145 145 149 64 31 62 86 68 79 313 331 330 313 341 360 226 234 169 123 100 82 14 6 102 106 90 79 57 347 14 21 3 54 155 256 234 214 196 185 236 261 236 247 254 225 204 214 241 235 201 192 185 176 173 166
217 212 206 201 200 196 195 213 204 183 171 182 176 161 158 143 211 217 212 97 301 203 154 166 188 167 170 171 176 174 149 137 181 166 162 160 173 185 185 185 167 146 245 234 256 316 312 240 220 321 287 135 115 101 10 354 30 91 106 106 110 296 352 357 314 123 225 253 254 219 177 191 238 252 257 263 270 265 236 207 219 220 203 190 180 176 172 165
217 213 206 202 200 199 201 207 192 179 171 170 165 172 194 170 199 215 210 191 209 193 141 153 171 166 169 174 184 169 135 146 177 172 164 148 178 209 231 233 192 175 195 189 192 204 273 295 238 160 287 197 157 159 183 257 173 145 140 137 154 176 248 262 246 252 255 260 281 220 152 231 272 265 247 247 258 269 265 244 225 204 191 186 177 170 167 168
221 212 204 202 202 203 201 195 187 181 170 162 156 191 206 199 204 205 212 218 203 96 107 137 141 152 167 177 183 161 143 191 172 156 148 146 173 214 236 251 224 201 100 148 182 180 210 285 205 180 214 191 187 192 168 144 159 179 152 137 155 157 178 220 204 219 254 271 296 304 161 203 220 243 241 240 262 289 319 300 226 171 166 161 154 156 163 172
224 212 206 202 202 204 198 189 187 178 163 158 160 187 197 205 206 207 216 212 180 75 81 119 124 142 182 218 217 173 156 185 173 152 162 174 183 196 196 212 207 186 135 172 213 166 196 261 223 186 159 169 189 198 122 113 143 224 124 115 175 183 180 221 211 193 202 293 278 226 216 219 213 256 263 250 284 332 352 349 136 138 142 141 153 169 172 177
221 209 205 201 201 202 195 188 185 175 163 162 188 198 202 209 209 211 210 188 169 125 109 118 115 136 183 205 224 198 153 113 164 168 199 202 208 204 201 208 195 188 182 178 183 157 180 277 264 133 70 172 189 182 144 157 178 170 137 168 202 183 165 203 273 313 62 282 254 198 244 282 300 276 254 218 235 308 314 274 185 176 167 164 180 185 182 183
220 207 204 202 201 199 191 187 182 174 168 175 194 202 205 217 230 227 187 153 152 137 130 163 179 154 174 189 204 200 169 108 166 178 189 196 230 211 203 217 190 195 201 184 184 190 162 250 295 103 129 242 203 116 96 81 135 132 183 203 156 64 104 125 262 344 26 263 265 207 232 258 253 266 271 162 210 257 258 242 224 213 190 193 200 192 191 188
226 207 209 209 202 194 188 185 179 172 172 189 199 210 204 218 235 226 204 167 136 144 164 201 193 166 174 186 192 188 179 166 175 182 180 192 239 203 186 199 197 198 204 191 214 242 151 194 296 62 174 271 12 107 95 17 94 135 189 194 127 116 204 125 171 234 192 250 282 240 226 230 210 226 272 163 209 232 237 227 223 222 208 206 206 195 194 186
230 208 232 212 200 192 187 183 177 172 181 188 197 210 207 218 229 220 212 224 154 160 193 208 196 181 184 180 172 178 188 184 171 177 188 190 230 205 181 188 198 194 194 184 195 222 144 191 263 330 219 264 19 117 157 198 266 61 124 171 126 138 172 167 180 171 158 227 275 275 239 219 210 203 191 202 212 216 221 215 215 221 213 207 203 194 192 189
220 218 268 200 193 189 184 180 177 182 191 189 197 204 205 218 226 216 209 222 212 188 208 210 189 182 192 179 167 173 193 193 174 182 204 192 209 230 190 179 176 181 183 187 194 172 118 202 221 294 321 172 178 196 187 186 181 156 154 177 185 117 117 183 224 150 143 187 232 275 278 242 206 197 193 203 212 211 211 210 216 223 214 207 203 194 193 192
199 242 256 179 183 182 178 178 193 197 193 200 208 212 212 220 228 208 206 218 239 248 228 206 188 189 188 179 179 176 175 187 186 190 218 205 201 235 201 175 161 160 167 186 203 188 174 193 168 165 229 200 219 240 216 197 185 175 180 184 182 167 133 178 257 211 151 203 196 230 277 263 221 198 198 199 207 212 211 209 217 222 211 207 204 194 195 194
208 252 188 170 175 173 170 190 203 186 202 207 211 218 210 222 233 200 200 213 234 255 267 239 201 196 186 176 183 176 163 178 192 194 222 216 206 214 204 181 162 157 160 179 200 193 146 121 132 173 206 213 241 276 277 196 157 146 177 179 174 181 167 177 232 224 167 244 213 143 283 273 228 169 205 209 214 224 223 213 216 223 210 202 202 195 196 199
234 248 163 169 172 170 171 215 189 183 226 215 225 246 207 208 215 199 191 202 218 236 250 256 231 212 208 182 170 173 173 183 194 198 213 217 214 215 195 177 162 161 166 173 186 179 101 126 153 224 282 302 314 330 360 34 71 97 195 183 181 203 193 183 206 177 175 241 188 129 266 262 253 265 260 259 251 254 255 226 216 226 216 194 197 197 195 196
223 243 169 176 177 172 176 211 185 189 220 211 225 233 238 258 211 200 204 199 205 219 227 238 241 233 224 195 180 182 182 194 207 204 205 205 217 217 187 178 170 169 179 176 167 171 181 171 141 131 284 312 327 332 351 359 121 196 219 200 201 207 184 170 131 125 242 235 164 175 256 250 312 330 320 342 324 298 287 256 223 219 215 198 197 198 193 187
198 220 296 192 187 180 185 201 183 189 203 199 207 215 229 249 216 205 214 207 206 211 220 232 231 235 231 199 197 184 186 205 218 203 202 207 225 219 186 183 181 180 189 182 170 169 174 168 156 172 217 235 235 220 190 181 180 211 220 192 204 207 190 192 207 203 239 227 149 203 249 254 334 330 297 315 325 286 279 277 238 215 208 202 196 194 190 184
194 209 196 199 206 207 205 191 179 185 192 186 193 207 216 226 225 209 208 213 217 212 222 236 220 217 250 219 216 206 201 215 217 183 195 201 213 266 197 187 188 188 176 157 159 154 132 172 184 192 212 228 240 233 170 151 156 198 211 194 198 208 196 194 222 223 221 169 192 227 239 262 271 243 237 267 248 241 264 263 246 232 213 205 198 192 190 188
209 210 189 176 204 226 220 194 178 184 191 187 184 191 205 216 223 210 193 209 218 209 219 233 219 216 229 222 226 230 221 221 207 190 199 194 200 304 271 187 191 189 162 147 160 140 102 192 203 205 218 229 241 236 174 163 181 196 203 199 199 203 193 196 218 221 176 127 247 241 198 243 258 231 206 247 234 225 248 235 233 234 212 206 194 180 186 190
224 216 202 187 191 211 219 202 184 186 192 192 191 195 202 210 213 206 199 208 216 208 208 222 220 221 222 219 221 228 229 231 224 216 208 182 161 127 53 49 208 196 144 152 179 143 135 208 208 207 224 235 242 236 182 176 198 198 197 202 199 195 196 205 217 218 176 178 249 250 189 227 254 231 195 227 215 211 229 221 215 210 192 194 182 178 191 191
242 252 260 249 216 194 193 199 195 197 194 188 193 206 204 206 210 210 203 193 211 214 203 214 220 218 219 219 216 220 222 220 228 229 209 172 161 156 144 101 328 2 88 151 192 149 168 214 197 194 222 238 243 236 186 178 204 205 201 205 202 201 205 210 215 217 207 218 244 252 241 248 258 207 192 224 214 212 224 192 187 194 187 184 182 190 200 196
239 234 268 310 269 198 162 168 191 209 202 187 193 204 202 207 211 210 202 189 200 205 203 219 228 218 215 215 213 221 220 211 222 230 204 167 179 178 174 182 168 109 89 149 188 302 212 218 142 154 214 244 244 235 185 182 209 224 223 218 216 214 212 211 214 216 218 230 242 251 259 264 259 170 193 227 190 189 207 184 201 207 191 185 189 199 203 199
236 160 131 336 284 214 191 155 157 208 215 192 198 199 200 211 211 205 206 207 209 204 198 215 226 222 216 217 215 224 227 218 224 230 193 174 196 195 193 189 155 146 155 162 149 159 199 217 75 123 207 248 243 210 171 185 209 245 249 236 227 221 209 203 212 215 214 226 241 248 254 259 252 162 193 213 161 190 216 207 212 214 194 189 195 203 205 202
214 187 128 96 298 237 215 179 159 194 216 194 208 208 207 217 212 200 206 217 220 219 207 213 222 219 216 223 223 228 230 215 206 208 166 163 172 161 169 167 153 155 164 164 149 153 171 181 170 155 209 251 246 165 147 159 176 239 245 240 234 225 210 208 219 224 217 217 231 235 237 250 251 163 199 219 191 207 220 209 210 212 200 200 204 206 206 201